OneWeb SL0587

operational
NORAD ID: 54654 Int'l Des: 2022-166 Owner: ONEWEBN Country: UK Constellation: oneweb
LEOCIRCULARPOLARONEWEB_TYPE

Über OneWeb SL0587

Beschreibung wird geladen...

Live-Position

3D-Globus wird geladen...

Nächste Überflüge

Höhenverlauf

Altitude vs Time

uPlot chart will show altitude changes over time

Zweizeiliger Elementsatz

1 54654U 22166N 25299.23264165 .00000323 00000-0 75149-3 0 9994
2 54654 87.9177 290.6282 0002284 90.1404 269.9991 13.21824505140773
Epoch: 26. Okt. 2025 • Age: 7 hours

Aktueller Status

Höhe 1181.3 km
Geschwindigkeit 7.26 km/s
Subsatellitenpunkt -3.53°S, 62.8°E
Startdatum 8. Dez. 2022
Alter 2.8 years
Typ internet

Technische Details

Klassifizierung Payload
Masse 148.00 kg
Trockenmasse 140.00 kg
Gesamtmasse 148.00 kg
Länge 1.30 m
Durchmesser 1.00 m
Spannweite 5.00 m
Form Trapezoid+2 pan
Hersteller ONEWUS
Bus-Typ ARROW
Phasenstatus In Orbit
Besitzer/Staat ONEWEBN/UK

Große Konstellationen

Loading constellations...